GW1238 Weather Reports


time (UTC)temp
F
wind
direction
speed
knots
gust
knots
rain 1hr
in
rain 24hr
in
rain mn
in
humidity
%
barometer
mb
20260502183044 64 67 2.6 2.6 0.00 0.00 0.00 42 1018.3
20260502182539 64 0 3.5 5.2 0.00 0.00 0.00 42 1018.4
20260502182035 64 94 0.9 6.1 0.00 0.00 0.00 38 1018.4
20260502181533 65 204 0.0 3.5 0.00 0.00 0.00 40 1018.5
20260502181032 63 82 3.5 6.1 0.00 0.00 0.00 44 1018.4
20260502180528 63 60 7.0 7.8 0.00 0.00 0.00 52 1018.4
20260502170447 60 70 4.3 6.1 0.00 0.00 0.00 49 1019.1
20260502163931 60 48 7.0 7.8 0.00 0.00 0.00 53 1019.4
20260502163427 60 58 5.2 8.7 0.00 0.00 0.00 53 1019.3
20260502162925 61 65 4.3 6.1 0.00 0.00 0.00 50 1019.2
20260502162421 60 68 7.0 7.0 0.00 0.00 0.00 51 1019.6
20260502161918 59 76 5.2 7.0 0.00 0.00 0.00 48 1019.5
20260502161414 60 83 2.6 6.1 0.00 0.00 0.00 50 1019.8
20260502160912 60 357 1.7 6.1 0.00 0.00 0.00 55 1019.6
20260502160410 59 91 1.7 5.2 0.00 0.00 0.00 50 1019.5
20260502151849 59 47 3.5 5.2 0.00 0.00 0.00 51 1019.5
20260502151345 59 58 3.5 3.5 0.00 0.00 0.00 48 1019.3
20260502150843 59 15 1.7 3.5 0.00 0.00 0.00 48 1019.0
20260502150339 60 85 5.2 7.0 0.00 0.00 0.00 46 1019.0
20260502130727 55 295 5.2 7.0 0.00 0.00 0.00 60 1018.8
20260502130225 56 15 0.9 1.7 0.00 0.00 0.00 62 1018.5
20260502123711 55 25 0.9 3.5 0.00 0.00 0.00 64 1018.3
20260502123208 55 342 0.9 1.7 0.00 0.00 0.00 66 1018.3
20260502122704 54 314 0.9 2.6 0.00 0.00 0.00 67 1018.3
20260502122201 54 19 0.9 5.2 0.00 0.00 0.00 67 1018.0
20260502121659 54 283 1.7 2.6 0.00 0.00 0.00 67 1018.3
20260502121156 53 284 3.5 3.5 0.00 0.00 0.00 67 1018.2
20260502120653 53 301 1.7 2.6 0.00 0.00 0.00 68 1018.3
20260502120150 53 28 0.0 2.6 0.00 0.00 0.00 67 1018.1
20260502115647 53 295 1.7 3.5 0.00 0.00 0.00 68 1018.2
20260502115143 53 308 0.0 0.9 0.00 0.00 0.00 69 1018.1
20260502114639 53 310 1.7 1.7 0.00 0.00 0.00 68 1018.1
20260502114137 53 272 0.9 2.6 0.00 0.00 0.00 66 1017.9
20260502113634 53 275 1.7 2.6 0.00 0.00 0.00 66 1018.2
20260502113132 53 277 1.7 2.6 0.00 0.00 0.00 67 1018.1
20260502112630 53 294 0.9 1.7 0.00 0.00 0.00 67 1018.2
20260502112127 53 277 0.9 3.5 0.00 0.00 0.00 66 1018.2
20260502111625 53 306 0.0 1.7 0.00 0.00 0.00 65 1017.9
20260502111122 54 312 2.6 3.5 0.00 0.00 0.00 68 1017.7
20260502110620 53 16 0.9 1.7 0.00 0.00 0.00 66 1017.9
20260502110117 53 329 1.7 2.6 0.00 0.00 0.00 64 1017.9
20260502105614 53 329 0.0 1.7 0.00 0.00 0.00 65 1017.9
20260502105111 53 46 0.0 1.7 0.00 0.00 0.00 65 1017.5
20260502104608 54 288 0.9 2.6 0.00 0.00 0.00 67 1017.5
20260502104106 54 256 0.9 1.7 0.00 0.00 0.00 66 1017.4
20260502103603 54 286 1.7 2.6 0.00 0.00 0.00 66 1017.6
20260502103101 54 311 1.7 3.5 0.00 0.00 0.00 63 1017.4
20260502102557 54 266 2.6 2.6 0.00 0.00 0.00 64 1017.4
20260502102054 54 299 1.7 3.5 0.00 0.00 0.00 64 1017.3
20260502101552 54 50 2.6 5.2 0.00 0.00 0.00 65 1017.6
20260502101050 54 319 1.7 3.5 0.00 0.00 0.00 63 1017.5
20260502100549 54 285 2.6 5.2 0.00 0.00 0.00 64 1017.6
20260502091523 54 288 1.7 3.5 0.00 0.00 0.00 61 1017.3
20260502091021 54 289 1.7 3.5 0.00 0.00 0.00 62 1017.4
20260502090517 54 273 2.6 3.5 0.00 0.00 0.00 61 1017.5
20260502071412 56 306 1.7 2.6 0.00 0.00 0.00 56 1018.1
20260502070910 56 308 1.7 3.5 0.00 0.00 0.00 56 1018.2
20260502070408 56 322 1.7 2.6 0.00 0.00 0.00 56 1018.7
20260502065906 56 346 1.7 1.7 0.00 0.00 0.00 57 1018.5
20260502065404 56 4 0.9 2.6 0.00 0.00 0.00 56 1018.7
20260502064902 56 303 1.7 1.7 0.00 0.00 0.00 59 1018.4
20260502064400 56 276 1.7 1.7 0.00 0.00 0.00 57 1018.5
20260502063856 56 281 0.9 2.6 0.00 0.00 0.00 55 1018.3
20260502063354 57 285 0.9 1.7 0.00 0.00 0.00 56 1018.5
20260502062851 56 284 1.7 2.6 0.00 0.00 0.00 54 1018.4
20260502062349 57 358 0.0 2.6 0.00 0.00 0.00 54 1018.2
20260502061848 57 308 0.9 3.5 0.00 0.00 0.00 54 1018.3
20260502061345 57 304 1.7 3.5 0.00 0.00 0.00 54 1018.2
20260502060841 57 305 0.9 1.7 0.00 0.00 0.00 55 1018.3
20260502060336 57 112 0.0 1.7 0.00 0.00 0.00 54 1018.7
20260502055834 57 69 0.0 0.0 0.00 0.00 0.00 54 1018.5
20260502055331 57 324 0.9 2.6 0.00 0.00 0.00 54 1018.7
20260502054831 58 306 1.7 3.5 0.00 0.00 0.00 53 1018.7
20260502054328 58 269 0.9 1.7 0.00 0.00 0.00 56 1018.8
20260502053825 58 300 1.7 1.7 0.00 0.00 0.00 52 1018.2
20260502053322 58 299 1.7 1.7 0.00 0.00 0.00 55 1018.1
20260502052820 58 324 0.0 1.7 0.00 0.00 0.00 52 1018.3
20260502052318 58 1 0.9 1.7 0.00 0.00 0.00 53 1018.2
20260502051815 58 326 0.0 1.7 0.00 0.00 0.00 53 1018.2
20260502051314 58 289 0.9 1.7 0.00 0.00 0.00 52 1018.2
20260502050810 58 332 1.7 2.6 0.00 0.00 0.00 54 1018.1
20260502050306 58 281 0.9 1.7 0.00 0.00 0.00 53 1018.2
20260502045803 59 37 0.0 0.0 0.00 0.00 0.00 53 1018.0
20260502045300 59 61 0.9 0.9 0.00 0.00 0.00 52 1018.3
20260502044757 59 315 1.7 1.7 0.00 0.00 0.00 52 1018.2
20260502044253 59 281 0.9 1.7 0.00 0.00 0.00 52 1018.1
20260502043751 59 18 0.9 3.5 0.00 0.00 0.00 54 1018.3
20260502043248 59 296 1.7 1.7 0.00 0.00 0.00 52 1018.1
20260502042747 59 353 1.7 2.6 0.00 0.00 0.00 52 1018.0
20260502042245 60 151 0.0 2.6 0.00 0.00 0.00 53 1018.1
20260502041743 60 72 0.9 1.7 0.00 0.00 0.00 54 1018.0
20260502041240 60 305 2.6 2.6 0.00 0.00 0.00 53 1018.2
20260502040736 60 43 0.9 2.6 0.00 0.00 0.00 53 1018.2
20260502040233 60 19 0.9 2.6 0.00 0.00 0.00 54 1018.2
20260502035729 60 126 0.0 1.7 0.00 0.00 0.00 56 1018.2
20260502035226 60 352 1.7 2.6 0.00 0.00 0.00 54 1018.4
20260502034724 60 72 0.9 1.7 0.00 0.00 0.00 57 1018.4
20260502034222 60 322 2.6 3.5 0.00 0.00 0.00 57 1018.1
20260502033720 60 348 1.7 6.1 0.00 0.00 0.00 57 1018.1
20260502033217 60 300 0.9 1.7 0.00 0.00 0.00 60 1018.2
20260502032714 61 353 0.9 1.7 0.00 0.00 0.00 62 1018.3
20260502032209 61 0 2.6 3.5 0.00 0.00 0.00 58 1018.2
20260502031708 61 320 2.6 3.5 0.00 0.00 0.00 60 1018.3
20260502031205 61 306 1.7 3.5 0.00 0.00 0.00 60 1018.1
20260502030704 61 315 1.7 2.6 0.00 0.00 0.00 60 1018.1
20260502030202 61 68 0.9 2.6 0.00 0.00 0.00 60 1018.0
20260502025658 61 68 0.0 1.7 0.00 0.00 0.00 60 1018.1
20260502025156 61 32 0.9 2.6 0.00 0.00 0.00 61 1017.9
20260502024654 62 103 0.0 2.6 0.00 0.00 0.00 61 1017.8
20260502024152 62 33 2.6 2.6 0.00 0.00 0.00 60 1017.8
20260502023650 62 1 1.7 2.6 0.00 0.00 0.00 61 1017.8
20260502023147 62 25 0.9 3.5 0.00 0.00 0.00 59 1017.9
20260502022644 62 20 0.9 1.7 0.00 0.00 0.00 59 1018.1
20260502022141 62 288 0.9 1.7 0.00 0.00 0.00 59 1017.8
20260502021638 62 77 0.0 0.9 0.00 0.00 0.00 62 1017.7
20260502021135 62 293 0.9 2.6 0.00 0.00 0.00 60 1017.9
20260502020632 62 277 0.9 1.7 0.00 0.00 0.00 61 1017.6
20260502020129 62 339 1.7 3.5 0.00 0.00 0.00 59 1017.9
20260502015627 62 329 0.9 2.6 0.00 0.00 0.00 59 1017.9
20260502015123 63 1 1.7 2.6 0.00 0.00 0.00 60 1017.6
20260502014620 63 252 1.7 3.5 0.00 0.00 0.00 60 1017.3
20260502014118 63 286 5.2 6.1 0.00 0.00 0.00 61 1017.6
20260502013613 63 309 3.5 3.5 0.00 0.00 0.00 61 1017.2
20260502013109 63 289 1.7 3.5 0.00 0.00 0.00 60 1017.4
20260502012607 63 299 1.7 2.6 0.00 0.00 0.00 61 1017.4
20260502012105 64 307 3.5 6.1 0.00 0.00 0.00 59 1017.5
20260502011601 63 272 2.6 3.5 0.00 0.00 0.00 60 1017.1
20260502011057 63 316 1.7 2.6 0.00 0.00 0.00 59 1017.0
20260502010555 63 285 1.7 2.6 0.00 0.00 0.00 59 1016.7
20260502010051 63 307 2.6 2.6 0.00 0.00 0.00 58 1016.6
20260502005549 64 293 0.9 1.7 0.00 0.00 0.00 59 1016.6
20260502005046 63 296 0.9 1.7 0.00 0.00 0.00 60 1016.6
20260502004542 64 309 0.9 1.7 0.00 0.00 0.00 58 1016.6
20260502004039 64 340 1.7 2.6 0.00 0.00 0.00 56 1016.5
20260502003537 64 345 0.0 1.7 0.00 0.00 0.00 57 1016.2
20260502003033 64 333 0.9 2.6 0.00 0.00 0.00 56 1016.3
20260502002530 64 324 1.7 1.7 0.00 0.00 0.00 58 1016.3
20260502002027 64 304 0.9 1.7 0.00 0.00 0.00 60 1016.5
20260502001525 63 199 0.0 0.9 0.00 0.00 0.00 62 1016.3
20260502001022 64 268 0.0 0.9 0.00 0.00 0.00 64 1015.9
20260502000520 64 297 0.9 1.7 0.00 0.00 0.00 63 1016.0
20260502000017 64 285 0.9 0.9 0.00 0.00 0.00 62 1016.2
20260501235513 65 273 1.7 1.7 0.00 0.00 0.00 61 1016.2
20260501235008 65 337 0.9 1.7 0.00 0.00 0.00 60 1016.2
20260501234504 65 296 1.7 1.7 0.00 0.00 0.00 59 1016.1
20260501234003 65 295 0.9 1.7 0.00 0.00 0.00 54 1015.9
20260501233500 66 213 0.0 0.9 0.00 0.00 0.00 62 1016.1
20260501232956 66 321 0.0 1.7 0.00 0.00 0.00 59 1016.2
20260501232453 66 168 0.0 1.7 0.00 0.00 0.00 56 1016.1
20260501231950 67 324 0.9 0.9 0.00 0.00 0.00 53 1016.2
20260501231449 67 348 0.9 0.9 0.00 0.00 0.00 51 1015.9
20260501230946 67 44 0.0 0.9 0.00 0.00 0.00 57 1016.1
20260501230445 67 96 0.9 0.9 0.00 0.00 0.00 59 1016.2
20260501225942 68 174 0.9 1.7 0.00 0.00 0.00 57 1015.7
20260501225440 68 207 1.7 2.6 0.00 0.00 0.00 58 1015.6
20260501224935 68 148 3.5 3.5 0.00 0.00 0.00 61 1015.5
20260501224433 68 146 1.7 2.6 0.00 0.00 0.00 59 1015.5
20260501223930 68 275 0.9 0.9 0.00 0.00 0.00 53 1015.5
20260501223426 68 292 1.7 2.6 0.00 0.00 0.00 50 1015.5
20260501222922 69 248 0.0 0.9 0.00 0.00 0.00 47 1015.6
20260501222419 70 195 0.0 0.9 0.00 0.00 0.00 51 1015.4
20260501221915 71 277 0.9 1.7 0.00 0.00 0.00 44 1015.4
20260501221413 72 117 0.0 0.9 0.00 0.00 0.00 49 1015.4
20260501220911 71 189 0.9 1.7 0.00 0.00 0.00 50 1015.4
20260501220408 70 208 0.0 0.9 0.00 0.00 0.00 51 1015.3
20260501215904 70 201 0.9 2.6 0.00 0.00 0.00 47 1015.4
20260501215401 70 168 1.7 2.6 0.00 0.00 0.00 48 1015.4
20260501214856 70 187 0.0 0.9 0.00 0.00 0.00 49 1015.6
20260501214351 71 181 0.9 1.7 0.00 0.00 0.00 48 1015.9
20260501213847 70 176 1.7 2.6 0.00 0.00 0.00 46 1015.8
20260501213344 70 165 1.7 2.6 0.00 0.00 0.00 48 1016.0
20260501212840 71 171 1.7 2.6 0.00 0.00 0.00 45 1016.0
20260501212337 71 166 2.6 3.5 0.00 0.00 0.00 47 1016.2
20260501211834 70 156 0.0 2.6 0.00 0.00 0.00 46 1016.1
20260501211331 70 177 2.6 3.5 0.00 0.00 0.00 47 1016.2
20260501210828 71 189 2.6 2.6 0.00 0.00 0.00 48 1016.4
20260501210326 70 193 1.7 3.5 0.00 0.00 0.00 50 1016.3
20260501205822 70 167 1.7 3.5 0.00 0.00 0.00 46 1016.4
20260501205319 70 197 2.6 2.6 0.00 0.00 0.00 47 1016.4
20260501204815 69 194 1.7 3.5 0.00 0.00 0.00 45 1016.4
20260501204312 69 194 3.5 5.2 0.00 0.00 0.00 48 1016.4
20260501203808 70 175 3.5 5.2 0.00 0.00 0.00 49 1016.7
20260501203306 70 178 2.6 2.6 0.00 0.00 0.00 46 1016.4
20260501202803 70 174 3.5 3.5 0.00 0.00 0.00 47 1016.5
20260501202259 70 171 2.6 3.5 0.00 0.00 0.00 47 1016.6
20260501201756 69 212 2.6 3.5 0.00 0.00 0.00 47 1016.5
20260501201253 69 203 4.3 6.1 0.00 0.00 0.00 55 1016.8
20260501200750 69 192 1.7 3.5 0.00 0.00 0.00 48 1016.8
20260501200247 69 193 3.5 5.2 0.00 0.00 0.00 49 1017.1
20260501195744 70 190 3.5 5.2 0.00 0.00 0.00 49 1017.1
20260501195240 71 176 1.7 2.6 0.00 0.00 0.00 48 1017.0
20260501194736 71 174 2.6 2.6 0.00 0.00 0.00 48 1017.1
20260501194232 69 182 1.7 3.5 0.00 0.00 0.00 47 1017.4
20260501193729 69 165 2.6 3.5 0.00 0.00 0.00 49 1017.3
20260501193227 69 161 1.7 2.6 0.00 0.00 0.00 47 1017.3
20260501192724 70 163 2.6 3.5 0.00 0.00 0.00 48 1017.4
20260501192221 69 183 2.6 3.5 0.00 0.00 0.00 48 1017.6
20260501191719 69 183 3.5 3.5 0.00 0.00 0.00 49 1017.5
20260501191216 69 187 2.6 2.6 0.00 0.00 0.00 47 1017.7
20260501190712 69 189 1.7 3.5 0.00 0.00 0.00 50 1017.8
20260501190208 70 195 1.7 2.6 0.00 0.00 0.00 49 1017.6
20260501185704 70 217 0.9 2.6 0.00 0.00 0.00 48 1017.4
20260501185200 69 171 1.7 1.7 0.00 0.00 0.00 48 1017.6
20260501184656 68 182 1.7 1.7 0.00 0.00 0.00 49 1017.6
20260501184156 67 132 0.9 1.7 0.00 0.00 0.00 55 1017.5
20260501183653 68 125 1.7 2.6 0.00 0.00 0.00 50 1017.4